{"data":{"norad_id":58975,"intl_designator":"2024-031L","name":"STARLINK-31369","alt_names":[],"object_type":"PAYLOAD","status":"ACTIVE","operator":null,"country":"US","launch_date":"2024-02-15","launch_site_code":"AFWTR","launch_vehicle":null,"mission":null,"orbit_class":"UNKNOWN","rcs_meters":null,"size_class":null,"mass_kg":null,"dimensions":null,"purposes":["comms"],"wikipedia_slug":null,"has_3d_model":false,"image_url":null,"decayed_at":null,"tle_current":{"epoch":"2026-09-20T22:52:10.199712Z","epoch_age_seconds":116367,"freshness":"FRESH","line1":"1 58975U 24031L   26263.95289583 -.00002459  00000+0 -61677-4 0  9994","line2":"2 58975  53.1599 107.2494 0000912  84.1791 275.9315 15.34390447146448","mean_motion":15.34390447,"eccentricity":9.12e-5,"inclination_deg":53.1599,"raan_deg":107.2494,"arg_perigee_deg":84.1791,"mean_anomaly_deg":275.9315,"bstar":-6.1677e-5,"rev_number":14644,"period_min":93.848342370448,"perigee_km":462.10774666421,"apogee_km":463.35552110303,"semimajor_km":6840.8686338836,"source":"CELESTRAK","updated_at":"2026-09-21T09:00:34.020712Z"}}}